Weather History for K9A4 - January, 2013

Change the Weather History Date:

Tuesday, January 1, 2013

  Actual Average (KMSL) Record (KMSL)
Temperature  
Mean Temperature 45 °F 41 °F  
Max Temperature 51 °F 50 °F 77 °F (1952)
Min Temperature 39 °F 32 °F 7 °F (1928)
Degree Days  
Heating Degree Days 20 24  
Month to date heating degree days 24  
Since 1 July heating degree days 1260  
Cooling Degree Days 0 0  
Month to date cooling degree days 0  
Year to date cooling degree days 0  
Moisture  
Dew Point 45 °F    
Average Humidity 98    
Maximum Humidity 100    
Minimum Humidity 82    
Precipitation  
Precipitation 0.00 in 0.15 in 2.12 in (1947)
Month to date precipitation 0.15  
Year to date precipitation 0.15  
Snow  
Snow 0.00 in - - ()
Month to date snowfall  
Since 1 July snowfall  
Snow Depth -    
Sea Level Pressure  
Sea Level Pressure 30.06 in    
Wind  
Wind Speed 6 mph (NNW)    
Max Wind Speed 15 mph    
Max Gust Speed 21 mph    
Visibility 6 miles    
Events Rain    
T = Trace of Precipitation, MM = Missing Value Source: NWS Daily Summary

Daily Weather History Graph

Daily Weather History Graph

Search for Another Location

Airport or City:

Trip Planner

Search our weather history database for the weather conditions in past years. The results will help you decide how hot, cold, wet, or windy it might be!

Date:

Astronomy

Jan. 01, 2013 Rise Set
Actual Time 6:56 AM CST 4:49 PM CST
Civil Twilight 6:28 AM CST 5:17 PM CST
Nautical Twilight 5:57 AM CST 5:49 PM CST
Astronomical Twilight 5:26 AM CST 6:19 PM CST
Moon 9:08 PM CST (1/1) 9:19 AM CST (1/1)
Length of Visible Light 10h 49m
Length of Day
9h 53m
Waning Gibbous, 83% of the Moon is Illuminated
Jan 1
Waning Gibbous
Jan 4
Last Quarter
Jan 11
New
Jan 18
First Quarter
Jan 26
Full

Hourly Weather History & Observations

Time (CST) Temp. Windchill Dew Point Humidity Pressure Visibility Wind Dir Wind Speed Gust Speed Precip Events Conditions
12:15 AM 50.0 °F - 44.6 °F 82% 30.03 in 10.0 mi South 9.2 mph - N/A   Drizzle
12:35 AM 50.0 °F - 44.6 °F 82% 30.01 in 10.0 mi South 13.8 mph - N/A Rain Rain
12:55 AM 50.0 °F - 46.4 °F 87% 30.02 in 10.0 mi SSW 10.4 mph - N/A   Drizzle
1:15 AM 50.0 °F - 46.4 °F 87% 30.04 in 10.0 mi WSW 5.8 mph - N/A Rain Rain
1:35 AM 50.0 °F - 46.4 °F 87% 30.05 in 7.0 mi NNW 5.8 mph - N/A Rain Light Rain
1:55 AM 50.0 °F - 48.2 °F 94% 30.05 in 7.0 mi Calm Calm - N/A Rain Rain
2:15 AM 48.2 °F - 48.2 °F 100% 30.06 in 5.0 mi NNW 6.9 mph - N/A Rain Rain
2:35 AM 48.2 °F - 48.2 °F 100% 30.07 in 3.0 mi NW 3.5 mph - N/A Rain Heavy Rain
2:55 AM 46.4 °F 40.7 °F 46.4 °F 100% 30.08 in 4.0 mi NNW 12.7 mph - N/A Rain Rain
3:15 AM 44.6 °F 39.7 °F 44.6 °F 100% 30.08 in 5.0 mi NNW 9.2 mph - N/A Rain Heavy Rain
3:35 AM 44.6 °F 41.4 °F 44.6 °F 100% 30.08 in 10.0 mi North 5.8 mph - N/A Rain Rain
3:55 AM 44.6 °F - 44.6 °F 100% 30.08 in 5.0 mi Calm Calm - N/A Rain Rain
4:15 AM 44.6 °F 40.7 °F 44.6 °F 100% 30.06 in 5.0 mi SSE 6.9 mph - N/A Rain Rain
4:35 AM 44.6 °F 41.4 °F 44.6 °F 100% 30.05 in 5.0 mi SE 5.8 mph - N/A Rain Rain
4:55 AM 44.6 °F - 44.6 °F 100% 30.05 in 4.0 mi Calm Calm - N/A Rain Rain
5:15 AM 44.6 °F - 44.6 °F 100% 30.05 in 2.5 mi Calm Calm - N/A Rain Light Rain
5:35 AM 44.6 °F - 44.6 °F 100% 30.05 in 4.0 mi Calm Calm - N/A Rain Rain
5:55 AM 44.6 °F - 44.6 °F 100% 30.05 in 5.0 mi Calm Calm - N/A Rain Rain
6:15 AM 44.6 °F - 44.6 °F 100% 30.04 in 3.0 mi Calm Calm - N/A Rain Rain
6:35 AM 44.6 °F - 44.6 °F 100% 30.05 in 3.0 mi Calm Calm - N/A Rain Rain
6:55 AM 44.6 °F - 44.6 °F 100% 30.05 in 5.0 mi Calm Calm - N/A Rain Rain
7:15 AM 44.6 °F - 44.6 °F 100% 30.05 in 3.0 mi Calm Calm - N/A Rain Light Rain
7:35 AM 44.6 °F - 44.6 °F 100% 30.05 in 2.5 mi Calm Calm - N/A Rain Rain
7:55 AM 44.6 °F - 44.6 °F 100% 30.04 in 1.5 mi Calm Calm - N/A Rain Rain
8:15 AM 44.6 °F - 44.6 °F 100% 30.05 in 2.0 mi Calm Calm - N/A   Drizzle
8:35 AM 44.6 °F - 44.6 °F 100% 30.04 in 2.0 mi Calm Calm - N/A Rain Light Rain
8:55 AM 46.4 °F - 46.4 °F 100% 30.05 in 4.0 mi Calm Calm - N/A Rain Light Rain
9:15 AM 46.4 °F - 46.4 °F 100% 30.06 in 3.0 mi Calm Calm - N/A Rain Rain
9:35 AM 46.4 °F - 46.4 °F 100% 30.07 in 4.0 mi Calm Calm - N/A Rain Rain
9:55 AM 46.4 °F - 46.4 °F 100% 30.07 in 5.0 mi Calm Calm - N/A Rain Light Rain
10:15 AM 46.4 °F 45.2 °F 46.4 °F 100% 30.05 in 4.0 mi ESE 3.5 mph - N/A Rain Rain
10:35 AM 46.4 °F - 46.4 °F 100% 30.06 in 4.0 mi Calm Calm - N/A Rain Light Rain
10:55 AM 48.2 °F - 48.2 °F 100% 30.06 in 2.5 mi Calm Calm - N/A Rain Rain
11:15 AM 50.0 °F - 50.0 °F 100% 30.04 in 3.0 mi Calm Calm - N/A Rain Rain
11:35 AM 50.0 °F - 50.0 °F 100% 30.02 in 7.0 mi South 3.5 mph - N/A Rain Light Rain
11:55 AM 50.0 °F - 50.0 °F 100% 30.02 in 10.0 mi WSW 3.5 mph - N/A Rain Rain
12:15 PM 51.8 °F - 51.8 °F 100% 30.02 in 10.0 mi WNW 3.5 mph - N/A Rain Light Rain
12:35 PM 50.0 °F - 50.0 °F 100% 30.02 in 7.0 mi NNW 8.1 mph - N/A Rain Light Rain
12:55 PM 50.0 °F - 50.0 °F 100% 30.00 in 5.0 mi NNW 5.8 mph - N/A Rain Light Rain
1:15 PM 50.0 °F - 50.0 °F 100% 30.01 in 7.0 mi NW 8.1 mph - N/A Rain Light Rain
1:35 PM 50.0 °F - 50.0 °F 100% 30.02 in 5.0 mi NNW 10.4 mph - N/A Rain Rain
1:55 PM 48.2 °F - 48.2 °F 100% 30.01 in 5.0 mi NNW 10.4 mph - N/A Rain Rain
2:15 PM 48.2 °F - 48.2 °F 100% 30.00 in 10.0 mi NNW 6.9 mph - N/A Rain Light Rain
2:35 PM 48.2 °F - 48.2 °F 100% 30.03 in 7.0 mi NNW 6.9 mph - N/A Rain Rain
2:55 PM 46.4 °F 41.9 °F 46.4 °F 100% 30.02 in 7.0 mi North 9.2 mph - N/A Rain Rain
3:15 PM 46.4 °F 41.5 °F 46.4 °F 100% 30.02 in 7.0 mi North 10.4 mph - N/A Rain Rain
3:35 PM 44.6 °F 40.2 °F 44.6 °F 100% 30.02 in 7.0 mi North 8.1 mph - N/A Rain Light Rain
3:55 PM 44.6 °F 40.2 °F 44.6 °F 100% 30.03 in 7.0 mi North 8.1 mph - N/A   Drizzle
4:15 PM 44.6 °F 40.7 °F 44.6 °F 100% 30.03 in 4.0 mi North 6.9 mph - N/A   Drizzle
4:35 PM 44.6 °F 41.4 °F 44.6 °F 100% 30.04 in 4.0 mi North 5.8 mph - N/A Rain Rain
4:55 PM 44.6 °F 40.2 °F 44.6 °F 100% 30.06 in 7.0 mi North 8.1 mph - N/A Rain Light Rain
5:15 PM 44.6 °F 41.4 °F 44.6 °F 100% 30.05 in 7.0 mi North 5.8 mph - N/A Rain Rain
5:35 PM 42.8 °F 40.1 °F 42.8 °F 100% 30.06 in 10.0 mi North 4.6 mph - N/A Rain Rain
5:55 PM 42.8 °F 40.1 °F 42.8 °F 100% 30.06 in 10.0 mi North 4.6 mph - N/A   Drizzle
6:15 PM 42.8 °F 38.6 °F 42.8 °F 100% 30.05 in 10.0 mi North 6.9 mph - N/A Rain Light Rain
6:35 PM 42.8 °F - 42.8 °F 100% 30.05 in 7.0 mi Calm Calm - N/A Rain Rain
6:55 PM 42.8 °F - 42.8 °F 100% 30.05 in 10.0 mi Calm Calm - N/A   Light Drizzle
7:15 PM 42.8 °F - 42.8 °F 100% 30.05 in 10.0 mi Calm Calm - N/A   Overcast
7:35 PM 42.8 °F 36.2 °F 42.8 °F 100% 30.08 in 10.0 mi NNW 12.7 mph - N/A   Overcast
7:55 PM 42.8 °F 35.4 °F 42.8 °F 100% 30.10 in 10.0 mi NNW 15.0 mph - N/A   Overcast
8:15 PM 42.8 °F 35.8 °F 41.0 °F 93% 30.10 in 10.0 mi NNW 13.8 mph 19.6 mph N/A   Light Drizzle
8:35 PM 41.0 °F 33.5 °F 41.0 °F 100% 30.10 in 10.0 mi North 13.8 mph - N/A   Overcast
8:55 PM 41.0 °F 33.5 °F 41.0 °F 100% 30.10 in 10.0 mi North 13.8 mph 20.7 mph N/A   Overcast
9:15 PM 41.0 °F 34.3 °F 41.0 °F 100% 30.10 in 10.0 mi North 11.5 mph - N/A   Overcast
9:35 PM 41.0 °F 33.5 °F 41.0 °F 100% 30.10 in 10.0 mi North 13.8 mph - N/A   Overcast
9:55 PM 41.0 °F 34.3 °F 39.2 °F 93% 30.12 in 7.0 mi North 11.5 mph - N/A   Overcast
10:15 PM 39.2 °F 32.5 °F 39.2 °F 100% 30.13 in 7.0 mi North 10.4 mph - N/A   Overcast
10:35 PM 39.2 °F 32.5 °F 39.2 °F 100% 30.13 in 5.0 mi North 10.4 mph - N/A   Overcast
10:55 PM 39.2 °F 33.0 °F 39.2 °F 100% 30.13 in 7.0 mi North 9.2 mph - N/A   Overcast
11:15 PM 39.2 °F 33.6 °F 37.4 °F 93% 30.14 in 7.0 mi North 8.1 mph - N/A   Overcast
11:35 PM 39.2 °F 34.2 °F 37.4 °F 93% 30.14 in 7.0 mi North 6.9 mph - N/A   Overcast
11:55 PM 39.2 °F 33.0 °F 37.4 °F 93% 30.13 in 7.0 mi North 9.2 mph - N/A   Overcast